Location: Unspecified
(43.4354°N, 0.0000°E)
Time: 15:22:47
(UTC+00:00)

Courier 1B - Pass Details

Date: 22 June 2019
Orbit: 963 x 1209 km, 28.3° (Epoch: 16 July)

Event Time Altitude Azimuth Distance (km) Brightness Sun altitude
Rises 22:13:28 0° 254° (WSW) 3,995 10.8 -18.6°
Reaches altitude 10° 22:17:10 10° 237° (WSW) 3,071 10.0 -18.9°
Enters shadow 22:22:03 19° 197° (SSW) 2,501 9.2 -19.3°
Maximum altitude 22:22:10 19° 196° (SSW) 2,502 - -19.3°
Drops below altitude 10° 22:27:15 10° 155° (SSE) 3,132 - -19.7°
Sets 22:31:05 0° 138° (SE) 4,101 - -19.9°
